Showing default

TOMORROW-S3, 62392

Orbit data source: Space-Track

TOMORROW-S3, 62392 is a payload satellite owned by Tomorrow.io (US) in LEO that was launched on Sat, 21 Dec 2024 UTC via an FALCON 9 launch vehicle from the Air Force Western Test Range (AFWTR). Payload-class satellites include a variety of spacecraft equipped with specific instruments for various scientific and technological missions. These include communications satellites like Starlink; space stations such as the ISS; scientific satellites like the Hubble; Earth observation satellites from companies like Planet Labs, Umbra, and HawkEye 360; GPS; miniature CubeSats for education and research; and military/defense satellites.

Loading next visibility...
Identifier
62392, 2024-247R
Orbit
LEO
Country
Flag of USUS
Related business
Manufacturer
Blue Canyon
Mission
Operational Commercial Weather
Bus & Motor
CUBESAT 6U, Unknown motor
Mass
12 kg wet, 12 kg dry
Launch date (UTC)
2024-12-21 (1 year ago)
Launch vehicle
FALCON 9
Launch site
Air Force Western Test Range (AFWTR)
Object type
Payload
Rocket body
Debris
Shape & HBR
Box + 2 Pan, 1.0 m
Radar Cross Section
0.138 m², Small (<0.1 m²)

Expand to show TLE details & history
Last TLE update: 11 hours ago

TLE from 11 hours ago
0 TOMORROW-S3
1 62392U 24247R   26036.71146377  .00014022  00000-0  52918-3 0  9991
2 62392  45.0003 291.4460 0000740 290.5709  69.5094 15.27004826 62843
Epoch: 2026-02-05T17:04Z
TLE epoch observation values (Epoch: 2026-02-05T17:04:30.469Z)
Latitude
-0.00006°
Longitude
-100.54078°
Altitude
484.593 km
Speed
7.625 km/s
True Right ascension
19h 25m 47s
True Declination
0° 00' 00"
Sunlit
Object was in daylight at epoch
Visualization orbit readout
Latitude
Unknown
Longitude
Unknown
Altitude
Unknown
Speed
Unknown
Apparent Right ascension
Unknown
Apparent Declination
Unknown
Sunlit
N/A
Visualization observer readout
Local Sidereal Time
06:38:50
Azimuth
Unknown
Elevation
Unknown
Doppler factor
Unknown
Orbital elements
Apogee altitude
486.889 km
Perigee altitude
485.873 km
Semi-major axis
6,864.518 km
Eccentricity
0.00007
Inclination
45.0003°
RAAN
291.446°
Arg. of periapsis
290.5709°
True anomaly
69.51734°
Mean anomaly
69.5094°
Eccentric anomaly
69.51337°
Mean motion
3.81617 °/min
Orbital period
94.34 mins
BSTAR
0.00052918
Loading maneuver chart data...
Computing Atmospheric mass density...
Loading historical data...
Loading historical data...
Loading historical data...
Loading historical data...
Loading historical data...
Loading historical data...
Loading historical data...

Documentation

Showing up to 5 results
|